| time (UTC) | temp F | wind direction | speed knots | gust knots | rain 1hr in | rain 24hr in | rain mn in | humidity % | barometer mb |
| 20260903071114 | 63 | 98 | 1.7 | 4.3 | 0.00 | 0.00 | 0.00 | 76 | 1023.9 |
| 20260903064113 | 62 | 40 | 1.7 | 4.3 | 0.00 | 0.00 | 0.00 | 78 | 1024.2 |
| 20260903061114 | 59 | 188 | 0.9 | 2.6 | 0.00 | 0.00 | 0.00 | 83 | 1024.6 |
| 20260903054113 | 59 | 226 | 0.9 | 1.7 | 0.00 | 0.00 | 0.00 | 84 | 1024.7 |
| 20260903051114 | 58 | 275 | 0.9 | 1.7 | 0.00 | 0.00 | 0.00 | 84 | 1024.8 |
| 20260903044113 | 58 | 227 | 0.9 | 1.7 | 0.00 | 0.00 | 0.00 | 81 | 1024.8 |
| 20260903041113 | 59 | 243 | 0.9 | 1.7 | 0.00 | 0.00 | 0.00 | 81 | 1024.7 |
| 20260903031114 | 59 | 253 | 0.9 | 1.7 | 0.00 | 0.00 | 0.00 | 81 | 1024.7 |
| 20260903021113 | 60 | 245 | 1.7 | 5.2 | 0.00 | 0.00 | 0.00 | 78 | 1024.4 |
| 20260903014113 | 61 | 239 | 1.7 | 4.3 | 0.00 | 0.00 | 0.00 | 78 | 1024.3 |
| 20260903011114 | 61 | 256 | 0.9 | 2.6 | 0.00 | 0.00 | 0.00 | 76 | 1024.3 |
| 20260903004114 | 61 | 257 | 0.9 | 1.7 | 0.00 | 0.00 | 0.00 | 78 | 1023.2 |
| 20260903001513 | 62 | 250 | 0.9 | 2.6 | 0.00 | 0.00 | 0.00 | 75 | 1024.2 |
| 20260902234114 | 62 | 260 | 0.9 | 1.7 | 0.00 | 0.00 | 0.00 | 76 | 1024.1 |
| 20260902224114 | 63 | 245 | 0.9 | 2.6 | 0.00 | 0.00 | 0.00 | 74 | 1022.9 |
| 20260902221114 | 64 | 226 | 0.9 | 4.3 | 0.00 | 0.00 | 0.00 | 73 | 1022.8 |
| 20260902214114 | 64 | 226 | 1.7 | 4.3 | 0.00 | 0.00 | 0.00 | 71 | 1022.7 |
| 20260902211114 | 65 | 248 | 0.9 | 1.7 | 0.00 | 0.00 | 0.00 | 68 | 1022.5 |
| 20260902204115 | 66 | 272 | 1.7 | 5.2 | 0.00 | 0.00 | 0.00 | 66 | 1022.4 |
| 20260902201114 | 66 | 243 | 1.7 | 3.5 | 0.00 | 0.00 | 0.00 | 67 | 1022.3 |
| 20260902194114 | 67 | 272 | 1.7 | 4.3 | 0.00 | 0.00 | 0.00 | 63 | 1022.2 |
| 20260902191114 | 68 | 194 | 2.6 | 7.8 | 0.00 | 0.00 | 0.00 | 60 | 1020.9 |
| 20260902184114 | 69 | 223 | 2.6 | 9.6 | 0.00 | 0.00 | 0.00 | 59 | 1020.7 |
| 20260902181114 | 71 | 207 | 1.7 | 7.0 | 0.00 | 0.00 | 0.00 | 53 | 1019.2 |
| 20260902174114 | 71 | 331 | 2.6 | 6.1 | 0.00 | 0.00 | 0.00 | 54 | 1019.3 |
| 20260902171114 | 72 | 307 | 2.6 | 5.2 | 0.00 | 0.00 | 0.00 | 53 | 1018.1 |
| 20260902164114 | 72 | 290 | 1.7 | 4.3 | 0.00 | 0.00 | 0.00 | 53 | 1018.1 |
| 20260902161114 | 74 | 272 | 1.7 | 5.2 | 0.00 | 0.00 | 0.00 | 51 | 1017.7 |
| 20260902154114 | 76 | 351 | 2.6 | 7.8 | 0.00 | 0.00 | 0.00 | 44 | 1017.3 |
| 20260902151114 | 77 | 352 | 2.6 | 7.0 | 0.00 | 0.00 | 0.00 | 41 | 1018.3 |
| 20260902144114 | 78 | 14 | 3.5 | 8.7 | 0.00 | 0.00 | 0.00 | 41 | 1018.1 |
| 20260902141114 | 78 | 24 | 2.6 | 13.0 | 0.00 | 0.00 | 0.00 | 43 | 1018.1 |
| 20260902134113 | 78 | 357 | 2.6 | 8.7 | 0.00 | 0.00 | 0.00 | 45 | 1018.2 |
| 20260902131114 | 76 | 9 | 2.6 | 7.8 | 0.00 | 0.00 | 0.00 | 48 | 1018.4 |
| 20260902124113 | 77 | 28 | 3.5 | 11.3 | 0.00 | 0.00 | 0.00 | 48 | 1018.4 |
| 20260902121114 | 75 | 31 | 3.5 | 7.8 | 0.00 | 0.00 | 0.00 | 50 | 1018.6 |
| 20260902114114 | 74 | 40 | 3.5 | 7.8 | 0.00 | 0.00 | 0.00 | 51 | 1019.8 |
| 20260902111114 | 73 | 94 | 1.7 | 5.2 | 0.00 | 0.00 | 0.00 | 58 | 1020.1 |
| 20260902104114 | 71 | 84 | 1.7 | 4.3 | 0.00 | 0.00 | 0.00 | 60 | 1020.5 |
| 20260902101114 | 68 | 80 | 2.6 | 5.2 | 0.00 | 0.00 | 0.00 | 64 | 1021.9 |
| 20260902094114 | 67 | 67 | 1.7 | 4.3 | 0.00 | 0.00 | 0.00 | 65 | 1022.2 |
| 20260902091113 | 65 | 39 | 2.6 | 5.2 | 0.00 | 0.00 | 0.00 | 72 | 1022.5 |
| 20260902084113 | 64 | 62 | 1.7 | 4.3 | 0.00 | 0.00 | 0.00 | 73 | 1022.7 |
| 20260902081113 | 63 | 133 | 1.7 | 4.3 | 0.00 | 0.00 | 0.00 | 75 | 1022.9 |
| 20260902074114 | 61 | 124 | 1.7 | 4.3 | 0.00 | 0.00 | 0.00 | 78 | 1024.3 |